DLH4NH EDDF-EFHK

Flight info

Callsign DLH4NH
Flight time 1h 55m
Altitude 37000
Route MARUN3W/25C MARUN Y150 TOLGI DCT OKAGA DCT ALAMI DCT OKEVU DCT EVADI Y370 DIVAM
Aircraft A321/M-SDE3FGHIRWY/LB1

Departure

Time 2026-05-06 09:05
Airport Frankfurt Main Airport (EDDF)

Arrival

Time 2026-05-06 11:00
Airport Helsinki Vantaa Airport (EFHK)
Time Latitude Longitude Altitude Speed Heading
2026-05-06 08:32 50.04405 8.56221 363 ft 0 kts 159°
2026-05-06 08:51 50.04423 8.56211 359 ft 4 kts 163°
2026-05-06 08:52 50.04441 8.56203 361 ft 4 kts 171°
2026-05-06 08:52 50.04472 8.56208 358 ft 4 kts 231°
2026-05-06 08:52 50.04476 8.56215 363 ft 4 kts 250°
2026-05-06 08:52 50.04467 8.56176 363 ft 4 kts 250°
2026-05-06 08:53 50.04458 8.56137 361 ft 4 kts 250°
2026-05-06 08:53 50.04455 8.56124 356 ft 0 kts 249°
2026-05-06 08:55 50.04453 8.56117 356 ft 3 kts 249°
2026-05-06 08:55 50.04427 8.56049 363 ft 10 kts 221°
2026-05-06 08:56 50.04360 8.56047 357 ft 11 kts 162°
2026-05-06 08:56 50.04292 8.56119 357 ft 12 kts 104°
2026-05-06 08:56 50.04259 8.56228 362 ft 12 kts 151°
2026-05-06 08:56 50.04174 8.56279 358 ft 14 kts 160°
2026-05-06 08:57 50.04147 8.56397 357 ft 14 kts 66°
2026-05-06 08:57 50.04189 8.56533 358 ft 14 kts 70°
2026-05-06 08:57 50.04228 8.56700 363 ft 17 kts 70°
2026-05-06 08:57 50.04270 8.56877 363 ft 18 kts 70°
2026-05-06 08:58 50.04314 8.57063 364 ft 18 kts 70°
2026-05-06 08:58 50.04358 8.57248 367 ft 19 kts 68°
2026-05-06 08:58 50.04405 8.57443 363 ft 20 kts 70°
2026-05-06 08:58 50.04452 8.57639 366 ft 19 kts 69°
2026-05-06 08:59 50.04500 8.57835 370 ft 20 kts 70°
2026-05-06 08:59 50.04544 8.58023 369 ft 16 kts 70°
2026-05-06 08:59 50.04571 8.58153 365 ft 9 kts 80°
2026-05-06 08:59 50.04551 8.58207 366 ft 5 kts 150°
2026-05-06 09:00 50.04518 8.58227 366 ft 3 kts 160°
2026-05-06 09:00 50.04517 8.58227 366 ft 0 kts 160°
2026-05-06 09:01 50.04512 8.58230 370 ft 3 kts 160°
2026-05-06 09:02 50.04467 8.58255 370 ft 10 kts 160°
2026-05-06 09:02 50.04410 8.58248 371 ft 9 kts 228°
2026-05-06 09:02 50.04393 8.58194 370 ft 0 kts 247°
2026-05-06 09:04 50.04392 8.58189 369 ft 3 kts 247°
2026-05-06 09:04 50.04311 8.57863 369 ft 70 kts 250°
2026-05-06 09:04 50.04060 8.56815 361 ft 134 kts 248°
2026-05-06 09:04 50.03679 8.55220 511 ft 168 kts 248°
2026-05-06 09:05 50.03263 8.53541 1267 ft 167 kts 246°
2026-05-06 09:05 50.02859 8.51864 1908 ft 172 kts 249°
2026-05-06 09:05 50.02257 8.50156 2241 ft 191 kts 222°
2026-05-06 09:05 50.01032 8.49292 2765 ft 198 kts 200°
2026-05-06 09:06 49.99706 8.48680 3380 ft 199 kts 199°
2026-05-06 09:06 49.98367 8.48078 3965 ft 201 kts 199°
2026-05-06 09:06 49.97015 8.47463 4551 ft 203 kts 199°
2026-05-06 09:06 49.95654 8.46835 5091 ft 207 kts 199°
2026-05-06 09:07 49.94205 8.46170 5297 ft 229 kts 199°
2026-05-06 09:07 49.92640 8.45398 5791 ft 239 kts 207°
2026-05-06 09:07 49.91386 8.43769 6478 ft 239 kts 239°
2026-05-06 09:07 49.90935 8.41303 7158 ft 243 kts 271°
2026-05-06 09:08 49.91328 8.38731 7838 ft 250 kts 292°
2026-05-06 09:08 49.92323 8.36478 8530 ft 260 kts 311°
2026-05-06 09:08 49.93875 8.34796 8844 ft 285 kts 333°
2026-05-06 09:08 49.95736 8.33616 9443 ft 292 kts 334°
2026-05-06 09:09 49.97610 8.32414 10013 ft 300 kts 334°
2026-05-06 09:09 49.99606 8.31107 10160 ft 322 kts 334°
2026-05-06 09:09 50.01763 8.29804 10282 ft 345 kts 341°
2026-05-06 09:09 50.04192 8.29088 10540 ft 363 kts 353°
2026-05-06 09:10 50.06744 8.29173 11064 ft 371 kts
2026-05-06 09:10 50.09276 8.30085 11646 ft 376 kts 17°
2026-05-06 09:10 50.11772 8.31394 12248 ft 379 kts 18°
2026-05-06 09:10 50.14285 8.32717 12838 ft 383 kts 18°
2026-05-06 09:11 50.16816 8.34048 13445 ft 386 kts 18°
2026-05-06 09:11 50.19372 8.35389 13981 ft 389 kts 17°
2026-05-06 09:11 50.21954 8.36743 14507 ft 392 kts 17°
2026-05-06 09:11 50.24518 8.38089 15022 ft 395 kts 18°
2026-05-06 09:12 50.27131 8.39461 15543 ft 398 kts 18°
2026-05-06 09:12 50.29772 8.40852 16066 ft 402 kts 18°
2026-05-06 09:12 50.32427 8.42275 16596 ft 405 kts 18°
2026-05-06 09:12 50.35097 8.43730 17097 ft 408 kts 18°
2026-05-06 09:13 50.37794 8.45210 17549 ft 412 kts 18°
2026-05-06 09:13 50.40520 8.46709 18014 ft 416 kts 18°
2026-05-06 09:13 50.43259 8.48217 18433 ft 419 kts 18°
2026-05-06 09:13 50.46023 8.49736 18833 ft 422 kts 18°
2026-05-06 09:14 50.48812 8.51241 19248 ft 424 kts 17°
2026-05-06 09:14 50.51633 8.52660 19672 ft 427 kts 16°
2026-05-06 09:14 50.54481 8.54014 20093 ft 429 kts 15°
2026-05-06 09:14 50.57365 8.55347 20517 ft 432 kts 14°
2026-05-06 09:15 50.60257 8.56680 20914 ft 435 kts 15°
2026-05-06 09:15 50.63168 8.58039 21326 ft 438 kts 15°
2026-05-06 09:15 50.66098 8.59426 21723 ft 441 kts 15°
2026-05-06 09:15 50.69037 8.60835 22118 ft 443 kts 15°
2026-05-06 09:16 50.72005 8.62269 22518 ft 446 kts 15°
2026-05-06 09:16 50.74942 8.63697 22922 ft 449 kts 15°
2026-05-06 09:16 50.77903 8.65296 23309 ft 452 kts 22°
2026-05-06 09:16 50.80704 8.67589 23625 ft 456 kts 32°
2026-05-06 09:17 50.83257 8.70590 23967 ft 458 kts 42°
2026-05-06 09:17 50.85478 8.74216 24297 ft 460 kts 52°
2026-05-06 09:17 50.87429 8.78244 24612 ft 462 kts 54°
2026-05-06 09:17 50.89380 8.82317 24934 ft 465 kts 53°
2026-05-06 09:18 50.91335 8.86400 25258 ft 467 kts 53°
2026-05-06 09:18 50.93300 8.90513 25574 ft 469 kts 53°
2026-05-06 09:18 50.95279 8.94656 25885 ft 472 kts 53°
2026-05-06 09:18 50.97266 8.98821 26202 ft 474 kts 53°
2026-05-06 09:19 50.99261 9.03012 26559 ft 476 kts 54°
2026-05-06 09:19 51.01252 9.07205 26997 ft 475 kts 54°
2026-05-06 09:19 51.03240 9.11404 27342 ft 477 kts 54°
2026-05-06 09:19 51.05235 9.15630 27640 ft 478 kts 54°
2026-05-06 09:20 51.07287 9.19811 27919 ft 481 kts 49°
2026-05-06 09:20 51.09680 9.23535 28175 ft 483 kts 39°
2026-05-06 09:20 51.12384 9.26610 28432 ft 484 kts 30°
2026-05-06 09:20 51.15389 9.29043 28672 ft 485 kts 21°
2026-05-06 09:21 51.18583 9.30728 28908 ft 484 kts 12°
2026-05-06 09:21 51.21874 9.31882 29225 ft 482 kts 11°
2026-05-06 09:21 51.25130 9.33004 29801 ft 476 kts 12°
2026-05-06 09:21 51.28357 9.34120 30186 ft 473 kts 12°
2026-05-06 09:22 51.31568 9.35232 30468 ft 472 kts 12°
2026-05-06 09:22 51.34780 9.36348 30718 ft 473 kts 12°
2026-05-06 09:22 51.38003 9.37469 30985 ft 473 kts 12°
2026-05-06 09:22 51.41226 9.38592 31218 ft 473 kts 12°
2026-05-06 09:23 51.44442 9.39715 31469 ft 473 kts 12°
2026-05-06 09:23 51.47655 9.40839 31780 ft 471 kts 12°
2026-05-06 09:23 51.50822 9.41951 32041 ft 471 kts 12°
2026-05-06 09:23 51.54027 9.43080 32282 ft 471 kts 12°
2026-05-06 09:24 51.57232 9.44212 32510 ft 472 kts 12°
2026-05-06 09:24 51.60436 9.45344 32732 ft 472 kts 12°
2026-05-06 09:24 51.63651 9.46478 32960 ft 473 kts 12°
2026-05-06 09:24 51.66863 9.47607 33208 ft 473 kts 12°
2026-05-06 09:25 51.70080 9.48739 33464 ft 473 kts 12°
2026-05-06 09:25 51.73295 9.49872 33705 ft 473 kts 12°
2026-05-06 09:25 51.76517 9.51011 33894 ft 474 kts 12°
2026-05-06 09:25 51.79720 9.52267 34074 ft 474 kts 18°
2026-05-06 09:26 51.82805 9.54202 34245 ft 474 kts 26°
2026-05-06 09:26 51.85674 9.56824 34414 ft 473 kts 35°
2026-05-06 09:26 51.88285 9.59963 34571 ft 473 kts 39°
2026-05-06 09:26 51.90890 9.63224 34771 ft 473 kts 39°
2026-05-06 09:27 51.93493 9.66476 34963 ft 472 kts 38°
2026-05-06 09:27 51.96091 9.69726 35153 ft 473 kts 39°
2026-05-06 09:27 51.98699 9.72999 35358 ft 473 kts 38°
2026-05-06 09:27 52.01302 9.76270 35554 ft 473 kts 38°
2026-05-06 09:28 52.03904 9.79550 35735 ft 474 kts 38°
2026-05-06 09:28 52.09125 9.86155 35785 ft 475 kts 38°
2026-05-06 09:29 52.14303 9.92716 35791 ft 474 kts 39°
2026-05-06 09:29 52.19505 9.99312 35807 ft 473 kts 39°
2026-05-06 09:30 52.24697 10.05924 35813 ft 473 kts 39°
2026-05-06 09:30 52.29881 10.12543 35813 ft 473 kts 39°
2026-05-06 09:31 52.35037 10.19163 35823 ft 472 kts 39°
2026-05-06 09:31 52.40201 10.25804 35827 ft 472 kts 39°
2026-05-06 09:32 52.45359 10.32444 35813 ft 472 kts 39°
2026-05-06 09:32 52.50516 10.39112 35814 ft 472 kts 39°
2026-05-06 09:33 52.55659 10.45796 35815 ft 471 kts 40°
2026-05-06 09:33 52.60791 10.52478 35817 ft 471 kts 40°
2026-05-06 09:34 52.65928 10.59179 35816 ft 471 kts 40°
2026-05-06 09:34 52.71049 10.65897 35824 ft 471 kts 40°
2026-05-06 09:35 52.76173 10.72633 35925 ft 471 kts 40°
2026-05-06 09:35 52.78736 10.76000 36188 ft 471 kts 40°
2026-05-06 09:35 52.81303 10.79378 36348 ft 471 kts 39°
2026-05-06 09:35 52.83840 10.82726 36483 ft 472 kts 39°
2026-05-06 09:36 52.86404 10.86122 36628 ft 472 kts 39°
2026-05-06 09:36 52.88965 10.89517 36789 ft 472 kts 39°
2026-05-06 09:36 52.91534 10.92924 36832 ft 473 kts 39°
2026-05-06 09:37 52.96677 10.99776 36831 ft 474 kts 39°
2026-05-06 09:37 53.01822 11.06646 36834 ft 474 kts 39°
2026-05-06 09:38 53.06965 11.13525 36837 ft 474 kts 40°
2026-05-06 09:38 53.12099 11.20422 36834 ft 474 kts 40°
2026-05-06 09:39 53.17232 11.27348 36842 ft 475 kts 40°
2026-05-06 09:39 53.22333 11.34243 36843 ft 475 kts 40°
2026-05-06 09:40 53.27468 11.41205 36852 ft 475 kts 40°
2026-05-06 09:40 53.35166 11.51667 36864 ft 476 kts 40°
2026-05-06 09:41 53.39463 11.57537 36863 ft 476 kts 40°
2026-05-06 09:41 53.44589 11.64554 36869 ft 475 kts 40°
2026-05-06 09:42 53.49673 11.71537 36876 ft 475 kts 40°
2026-05-06 09:42 53.54776 11.78587 36873 ft 475 kts 40°
2026-05-06 09:43 53.59874 11.85653 36873 ft 475 kts 40°
2026-05-06 09:43 53.64969 11.92715 36867 ft 474 kts 40°
2026-05-06 09:44 53.70073 11.99806 36879 ft 474 kts 40°
2026-05-06 09:44 53.75154 12.06914 36879 ft 474 kts 40°
2026-05-06 09:45 53.80247 12.14056 36873 ft 474 kts 40°
2026-05-06 09:45 53.85283 12.21146 36885 ft 473 kts 40°
2026-05-06 09:46 53.90349 12.28301 36887 ft 473 kts 41°
2026-05-06 09:46 53.95413 12.35461 36885 ft 474 kts 41°
2026-05-06 09:47 54.00471 12.42644 36886 ft 474 kts 41°
2026-05-06 09:47 54.05526 12.49851 36885 ft 474 kts 41°
2026-05-06 09:48 54.10582 12.57082 36891 ft 475 kts 41°
2026-05-06 09:48 54.15654 12.64346 36887 ft 475 kts 41°
2026-05-06 09:49 54.20694 12.71590 36891 ft 475 kts 41°
2026-05-06 09:49 54.25746 12.78889 36890 ft 475 kts 41°
2026-05-06 09:50 54.30824 12.86251 36882 ft 481 kts 41°
2026-05-06 09:50 54.35929 12.93677 36877 ft 487 kts 41°
2026-05-06 09:51 54.41129 13.01267 36882 ft 493 kts 41°
2026-05-06 09:51 54.46375 13.08930 36885 ft 496 kts 41°
2026-05-06 09:52 54.51622 13.16630 36885 ft 496 kts 41°
2026-05-06 09:52 54.56876 13.24371 36896 ft 497 kts 41°
2026-05-06 09:53 54.62134 13.32140 36895 ft 498 kts 41°
2026-05-06 09:53 54.67397 13.39953 36910 ft 500 kts 41°
2026-05-06 09:54 54.72645 13.47770 36919 ft 500 kts 41°
2026-05-06 09:54 54.77921 13.55645 36923 ft 501 kts 41°
2026-05-06 09:55 54.83205 13.63567 36927 ft 502 kts 41°
2026-05-06 09:55 54.88481 13.71524 36905 ft 503 kts 41°
2026-05-06 09:56 54.93759 13.79487 36925 ft 503 kts 41°
2026-05-06 09:56 54.99073 13.87395 36907 ft 502 kts 41°
2026-05-06 09:57 55.04402 13.95276 36909 ft 503 kts 41°
2026-05-06 09:57 55.09694 14.03143 36913 ft 503 kts 41°
2026-05-06 09:58 55.15033 14.11159 36911 ft 503 kts 41°
2026-05-06 09:58 55.20297 14.19106 36918 ft 503 kts 41°
2026-05-06 09:59 55.25591 14.27110 36922 ft 503 kts 41°
2026-05-06 09:59 55.30896 14.35151 36938 ft 504 kts 41°
2026-05-06 10:00 55.36210 14.43242 36947 ft 505 kts 41°
2026-05-06 10:00 55.41479 14.51296 36929 ft 503 kts 41°
2026-05-06 10:01 55.46765 14.59393 36912 ft 504 kts 41°
2026-05-06 10:01 55.52062 14.67533 36928 ft 504 kts 41°
2026-05-06 10:02 55.57348 14.75692 36934 ft 504 kts 41°
2026-05-06 10:02 55.62630 14.83900 36955 ft 505 kts 41°
2026-05-06 10:03 55.67877 14.92083 36968 ft 506 kts 41°
2026-05-06 10:03 55.73167 15.00338 36951 ft 507 kts 41°
2026-05-06 10:04 55.78448 15.08624 36947 ft 507 kts 41°
2026-05-06 10:04 55.83728 15.16937 36950 ft 507 kts 41°
2026-05-06 10:05 55.89002 15.25273 36949 ft 507 kts 42°
2026-05-06 10:05 55.94275 15.33642 36963 ft 508 kts 41°
2026-05-06 10:06 55.99558 15.42044 36962 ft 509 kts 42°
2026-05-06 10:06 56.04849 15.50506 36969 ft 510 kts 42°
2026-05-06 10:07 56.10140 15.58988 36967 ft 510 kts 41°
2026-05-06 10:07 56.15384 15.67436 36965 ft 511 kts 41°
2026-05-06 10:08 56.20676 15.75984 36975 ft 512 kts 41°
2026-05-06 10:08 56.25961 15.84569 36973 ft 512 kts 41°
2026-05-06 10:09 56.31240 15.93173 36981 ft 512 kts 42°
2026-05-06 10:09 56.36529 16.01822 37011 ft 514 kts 41°
2026-05-06 10:10 56.41823 16.10524 37001 ft 515 kts 41°
2026-05-06 10:10 56.47124 16.19258 37016 ft 517 kts 42°
2026-05-06 10:11 56.52441 16.28056 37020 ft 518 kts 42°
2026-05-06 10:11 56.57758 16.36899 37046 ft 519 kts 42°
2026-05-06 10:12 56.63070 16.45773 37033 ft 520 kts 42°
2026-05-06 10:12 56.68398 16.54692 37021 ft 520 kts 41°
2026-05-06 10:13 56.73723 16.63639 37028 ft 521 kts 42°
2026-05-06 10:13 56.79044 16.72624 37032 ft 521 kts 42°
2026-05-06 10:14 56.84355 16.81617 37004 ft 521 kts 42°
2026-05-06 10:14 56.89660 16.90662 37010 ft 521 kts 42°
2026-05-06 10:15 56.94929 16.99669 37011 ft 521 kts 42°
2026-05-06 10:15 57.00224 17.08755 37013 ft 521 kts 42°
2026-05-06 10:16 57.05525 17.17899 37006 ft 523 kts 42°
2026-05-06 10:16 57.10827 17.27072 37009 ft 524 kts 42°
2026-05-06 10:17 57.16147 17.36313 37024 ft 525 kts 42°
2026-05-06 10:17 57.21461 17.45580 37032 ft 526 kts 42°
2026-05-06 10:18 57.26770 17.54890 37038 ft 527 kts 42°
2026-05-06 10:18 57.32051 17.64188 37022 ft 528 kts 42°
2026-05-06 10:19 57.37369 17.73600 37029 ft 529 kts 42°
2026-05-06 10:19 57.42685 17.83018 37035 ft 529 kts 42°
2026-05-06 10:20 57.48010 17.92500 37041 ft 530 kts 43°
2026-05-06 10:20 57.53321 18.02008 37049 ft 530 kts 43°
2026-05-06 10:21 57.58632 18.11549 37024 ft 528 kts 43°
2026-05-06 10:21 57.63879 18.21026 37024 ft 528 kts 43°
2026-05-06 10:22 57.69157 18.30592 37003 ft 528 kts 43°
2026-05-06 10:22 57.74433 18.40185 36999 ft 530 kts 42°
2026-05-06 10:23 57.79719 18.49844 37008 ft 531 kts 42°
2026-05-06 10:23 57.85008 18.59560 37027 ft 532 kts 42°
2026-05-06 10:24 57.90281 18.69305 37050 ft 532 kts 42°
2026-05-06 10:24 57.95558 18.79087 37037 ft 531 kts 42°
2026-05-06 10:25 58.00785 18.88797 37038 ft 531 kts 42°
2026-05-06 10:25 58.06041 18.98614 37046 ft 531 kts 42°
2026-05-06 10:26 58.11290 19.08466 37054 ft 531 kts 42°
2026-05-06 10:26 58.16529 19.18350 37096 ft 531 kts 42°
2026-05-06 10:27 58.20879 19.26588 37078 ft 532 kts 42°
2026-05-06 10:27 58.26117 19.36548 37081 ft 533 kts 42°
2026-05-06 10:28 58.31357 19.46531 37080 ft 534 kts 42°
2026-05-06 10:28 58.36597 19.56569 37080 ft 534 kts 43°
2026-05-06 10:29 58.41817 19.66640 37047 ft 533 kts 42°
2026-05-06 10:29 58.47025 19.76723 37054 ft 533 kts 42°
2026-05-06 10:30 58.52227 19.86814 37057 ft 533 kts 42°
2026-05-06 10:30 58.57423 19.96941 37057 ft 533 kts 43°
2026-05-06 10:31 58.62605 20.07114 37049 ft 533 kts 42°
2026-05-06 10:31 58.67786 20.17321 37051 ft 534 kts 42°
2026-05-06 10:32 58.72964 20.27570 37059 ft 534 kts 43°
2026-05-06 10:32 58.78142 20.37850 37059 ft 534 kts 43°
2026-05-06 10:33 58.83301 20.48156 37092 ft 534 kts 42°
2026-05-06 10:33 58.88434 20.58442 37064 ft 535 kts 43°
2026-05-06 10:34 58.93582 20.68828 37059 ft 535 kts 43°
2026-05-06 10:34 58.98705 20.79205 37025 ft 535 kts 43°
2026-05-06 10:35 59.03819 20.89714 37052 ft 537 kts 47°
2026-05-06 10:35 59.08028 21.01784 37091 ft 541 kts 56°
2026-05-06 10:36 59.11948 21.14288 37084 ft 541 kts 57°
2026-05-06 10:36 59.15863 21.26823 37083 ft 542 kts 57°
2026-05-06 10:37 59.19776 21.39399 37075 ft 542 kts 57°
2026-05-06 10:37 59.23665 21.51973 37062 ft 541 kts 57°
2026-05-06 10:38 59.27542 21.64569 37052 ft 540 kts 57°
2026-05-06 10:38 59.31400 21.77189 37032 ft 540 kts 57°
2026-05-06 10:39 59.35242 21.89856 37054 ft 541 kts 57°
2026-05-06 10:39 59.39084 22.02554 37066 ft 541 kts 57°
2026-05-06 10:40 59.42902 22.15224 37076 ft 542 kts 57°
2026-05-06 10:40 59.46726 22.27989 37054 ft 540 kts 57°
2026-05-06 10:41 59.50484 22.40620 36859 ft 527 kts 57°
2026-05-06 10:41 59.52340 22.46885 35920 ft 532 kts 57°
2026-05-06 10:41 59.54212 22.53213 34953 ft 538 kts 57°
2026-05-06 10:42 59.56105 22.59620 33992 ft 544 kts 56°
2026-05-06 10:42 59.58019 22.66113 32859 ft 550 kts 56°
2026-05-06 10:42 59.59948 22.72681 31697 ft 556 kts 56°
2026-05-06 10:42 59.61893 22.79333 30551 ft 562 kts 56°
2026-05-06 10:43 59.63846 22.86057 29521 ft 563 kts 56°
2026-05-06 10:43 59.65771 22.92726 28928 ft 554 kts 56°
2026-05-06 10:43 59.67666 22.99319 28294 ft 547 kts 57°
2026-05-06 10:44 59.71374 23.12195 27064 ft 534 kts 57°
2026-05-06 10:44 59.73202 23.18541 26473 ft 527 kts 57°
2026-05-06 10:44 59.75009 23.24826 25862 ft 521 kts 57°
2026-05-06 10:44 59.76791 23.31037 25269 ft 515 kts 57°
2026-05-06 10:45 59.78552 23.37184 24685 ft 509 kts 57°
2026-05-06 10:45 59.80291 23.43270 24107 ft 503 kts 57°
2026-05-06 10:45 59.82000 23.49288 23570 ft 498 kts 57°
2026-05-06 10:45 59.83684 23.55251 22927 ft 490 kts 58°
2026-05-06 10:46 59.85336 23.61123 22397 ft 482 kts 58°
2026-05-06 10:46 59.86947 23.66858 22141 ft 468 kts 58°
2026-05-06 10:46 59.88537 23.72529 21987 ft 476 kts 58°
2026-05-06 10:46 59.90186 23.78408 21811 ft 496 kts 58°
2026-05-06 10:47 59.91800 23.84627 21537 ft 517 kts 64°
2026-05-06 10:47 59.93248 23.91253 20727 ft 525 kts 65°
2026-05-06 10:47 59.94679 23.97948 20107 ft 522 kts 65°
2026-05-06 10:47 59.96073 24.04577 19443 ft 515 kts 65°
2026-05-06 10:48 59.97440 24.11129 18792 ft 508 kts 65°
2026-05-06 10:48 59.98785 24.17608 18147 ft 502 kts 65°
2026-05-06 10:48 60.00112 24.24007 17515 ft 495 kts 65°
2026-05-06 10:48 60.01427 24.30321 16869 ft 489 kts 65°
2026-05-06 10:49 60.02731 24.36564 16261 ft 483 kts 65°
2026-05-06 10:49 60.04019 24.42717 15646 ft 477 kts 65°
2026-05-06 10:49 60.05287 24.48799 15054 ft 470 kts 65°
2026-05-06 10:49 60.06532 24.54801 14456 ft 464 kts 65°
2026-05-06 10:50 60.07755 24.60735 13885 ft 458 kts 65°
2026-05-06 10:50 60.08957 24.66594 13273 ft 451 kts 65°
2026-05-06 10:50 60.10293 24.72205 12724 ft 441 kts 54°
2026-05-06 10:50 60.12181 24.76904 12169 ft 429 kts 44°
2026-05-06 10:51 60.14188 24.81273 11643 ft 422 kts 44°
2026-05-06 10:51 60.16165 24.85579 11104 ft 415 kts 44°
2026-05-06 10:51 60.18102 24.89803 10596 ft 408 kts 45°
2026-05-06 10:51 60.19930 24.93792 10088 ft 399 kts 45°
2026-05-06 10:52 60.21792 24.97862 9555 ft 393 kts 45°
2026-05-06 10:52 60.23629 25.01892 9065 ft 389 kts 45°
2026-05-06 10:52 60.25427 25.05843 8575 ft 386 kts 45°
2026-05-06 10:52 60.27252 25.09869 8089 ft 382 kts 45°
2026-05-06 10:53 60.29012 25.13766 7623 ft 380 kts 45°
2026-05-06 10:53 60.30781 25.17690 7138 ft 377 kts 45°
2026-05-06 10:53 60.32538 25.21592 6661 ft 374 kts 45°
2026-05-06 10:53 60.34275 25.25462 6418 ft 372 kts 45°
2026-05-06 10:54 60.35978 25.29273 6302 ft 355 kts 45°
2026-05-06 10:54 60.37655 25.32725 5796 ft 339 kts 34°
2026-05-06 10:54 60.39738 25.34585 4859 ft 318 kts
2026-05-06 10:54 60.41803 25.34111 4218 ft 287 kts 335°
2026-05-06 10:55 60.43322 25.31915 3877 ft 257 kts 308°
2026-05-06 10:55 60.44137 25.28955 3804 ft 225 kts 287°
2026-05-06 10:55 60.44341 25.25957 3685 ft 210 kts 268°
2026-05-06 10:55 60.44051 25.23123 3502 ft 204 kts 250°
2026-05-06 10:56 60.43342 25.20712 3267 ft 197 kts 232°
2026-05-06 10:56 60.42429 25.18695 2986 ft 191 kts 231°
2026-05-06 10:56 60.41550 25.16723 2728 ft 185 kts 231°
2026-05-06 10:56 60.40726 25.14890 2492 ft 167 kts 230°
2026-05-06 10:57 60.39986 25.13247 2248 ft 151 kts 232°
2026-05-06 10:57 60.39311 25.11745 2057 ft 140 kts 231°
2026-05-06 10:57 60.38675 25.10331 1873 ft 134 kts 230°
2026-05-06 10:57 60.38052 25.08947 1685 ft 133 kts 231°
2026-05-06 10:58 60.37428 25.07561 1505 ft 132 kts 231°
2026-05-06 10:58 60.36808 25.06186 1317 ft 134 kts 229°
2026-05-06 10:58 60.36181 25.04800 1098 ft 133 kts 229°
2026-05-06 10:58 60.35563 25.03454 899 ft 128 kts 228°
2026-05-06 10:59 60.34938 25.02082 696 ft 134 kts 229°
2026-05-06 10:59 60.34316 25.00698 566 ft 132 kts 229°
2026-05-06 10:59 60.33708 24.99347 397 ft 130 kts 231°
2026-05-06 10:59 60.33096 24.97996 235 ft 131 kts 232°
2026-05-06 11:00 60.32509 24.96686 175 ft 116 kts 229°
2026-05-06 11:00 60.32072 24.95713 173 ft 69 kts 227°
2026-05-06 11:00 60.31852 24.95298 174 ft 20 kts 193°
2026-05-06 11:00 60.31731 24.95214 173 ft 19 kts 199°
2026-05-06 11:01 60.31628 24.95276 170 ft 13 kts 89°
2026-05-06 11:01 60.31678 24.95404 171 ft 12 kts 49°
2026-05-06 11:01 60.31707 24.95553 168 ft 14 kts 119°
2026-05-06 11:01 60.31634 24.95684 167 ft 14 kts 100°
2026-05-06 11:02 60.31697 24.95834 167 ft 15 kts 39°
2026-05-06 11:02 60.31772 24.95996 167 ft 16 kts 51°
2026-05-06 11:02 60.31780 24.96021 167 ft 0 kts 64°
2026-05-06 11:02 60.31781 24.96033 167 ft 3 kts 78°
2026-05-06 11:03 60.31764 24.96115 167 ft 4 kts 159°
2026-05-06 11:03 60.31754 24.96132 167 ft 1 kts 135°
2026-05-06 11:03 60.31744 24.96146 167 ft 0 kts 142°